Location: Arboucave
(43.6130°N, 0.4343°W)
Time: 13:04:14
(UTC+00:00)

Cosmos 2195 Rocket - Pass Details

Date: 17 November 2025
Orbit: 948 x 991 km, 82.9° (Epoch: 06 December)

Event Time Altitude Azimuth Distance (km) Brightness Sun altitude
Rises 18:26:36 0° 354° (N) 3,699 7.5 -20.2°
Reaches altitude 10° 18:29:10 10° 358° (N) 2,752 6.8 -20.6°
Maximum altitude 18:35:25 62° 79° (E) 1,105 4.4 -21.7°
Drops below altitude 10° 18:41:40 10° 160° (SSE) 2,746 6.7 -22.9°
Sets 18:44:13 0° 164° (SSE) 3,690 7.4 -23.3°
